This demonstration page uses our WeatherBlox Daily Observations layout. Learn more.

36.17497, -115.13722

Hourly Observations for April 26, 2015

Temp ( °F °C ) Dew Point ( °F °C ) Humidity (%) Winds ( mph kmh ) Pressure ( in mb ) Visibility ( mi km ) Precip ( " mm )
12:53 am 00:53 Cloudy 56 13.3 37 2.8 49 49 NNW 12 19 29.8 1009 10 16.0934 0 0
1:53 am 01:53 Mostly Clear 55 12.8 37 2.8 51 51 NNW 14 22 29.8 1009 10 16.0934 0 0
2:53 am 02:53 Clear 56 13.3 33 0.6 42 42 N 16 26 29.81 1009 10 16.0934 0 0
3:53 am 03:53 Clear 56 13.3 29 -1.7 36 36 NNW 25 41 29.8 1009 10 16.0934 0 0
4:53 am 04:53 Clear 56 13.3 28 -2.2 34 34 NNW 26 43 29.82 1010 10 16.0934 0 0
5:53 am 05:53 Clear 56 13.3 27 -2.8 33 33 NNW 25 41 29.87 1012 10 16.0934 0 0
6:53 am 06:53 Sunny 57 13.9 27 -2.8 32 32 N 22 35 29.89 1012 10 16.0934 0 0
7:53 am 07:53 Sunny 58 14.4 27 -2.8 31 31 NNW 22 35 29.93 1014 10 16.0934 0 0
8:53 am 08:53 Sunny 61 16.1 26 -3.3 26 26 NNW 24 39 29.93 1014 10 16.0934 0 0
9:53 am 09:53 Sunny 64 17.8 24 -4.4 22 22 NW 28 44 29.94 1014 10 16.0934 0 0
10:53 am 10:53 Sunny 66 18.9 23 -5 19 19 NNW 22 35 29.94 1014 10 16.0934 0 0
11:53 am 11:53 Sunny 69 20.6 22 -5.6 17 17 NNW 24 39 29.93 1014 10 16.0934 0 0
12:53 pm 12:53 Sunny 70 21.1 18 -7.8 14 14 NNW 14 22 29.93 1013 10 16.0934 0 0
1:53 pm 13:53 Sunny 73 22.8 14 -10 10 10 NNW 21 33 29.91 1013 10 16.0934 0 0
2:53 pm 14:53 Sunny 72 22.2 13 -10.6 10 10 N 25 41 29.91 1013 10 16.0934 0 0
3:53 pm 15:53 Sunny 73 22.8 12 -11.1 9 9 N 21 33 29.89 1012 10 16.0934 0 0
4:53 pm 16:53 Sunny 73 22.8 11 -11.7 9 9 N 23 37 29.88 1012 10 16.0934 0 0
5:53 pm 17:53 Sunny 73 22.8 11 -11.7 9 9 N 10 17 29.89 1012 10 16.0934 0 0
6:53 pm 18:53 Sunny 70 21.1 13 -10.6 11 11 NE 15 24 29.91 1013 10 16.0934 0 0
7:53 pm 19:53 Clear 68 20 13 -10.6 12 12 NE 15 24 29.95 1014 10 16.0934 0 0
8:53 pm 20:53 Clear 67 19.4 15 -9.4 13 13 NNE 10 17 29.98 1015 10 16.0934 0 0
9:53 pm 21:53 Clear 65 18.3 16 -8.9 15 15 NNW 13 20 30 1016 10 16.0934 0 0
10:53 pm 22:53 Clear 64 17.8 16 -8.9 15 15 NNW 13 20 30.01 1016 10 16.0934 0 0
11:53 pm 23:53 Clear 63 17.2 15 -9.4 15 15 N 15 24 30.02 1017 10 16.0934 0 0

Powered by AerisWeather